Hourly Data Report for June 29, 2012

All times are specified in Local Standard Time (LST). Add 1 hour to adjust for Daylight Saving Time where and when it is observed.

MONCTON INTL A
NEW BRUNSWICK

46°06'44.000" N
64°40'43.000" W
70.70 m
8103201
71705
YQM

Download Data

Hourly Data (June 2012)
Hourly Data Report for June 29, 2012
Temp Definition
°C
Dew Point Temp Definition
°C
Rel Hum Definition
%
Wind Dir Definition
10's deg

Wind Spd Definition
km/h
Visibility Definition
km
Stn Press Definition
kPa
Hmdx Definition


Wind Chill Definition


Weather Definition


TIME
00:00 Legend Double Dagger 14.6 14.0 96 19 13 10.0 99.42     LegendNANA
01:00 Legend Double Dagger 13.9 13.4 97 19 9 10.0 99.42     LegendNANA
02:00 Legend Double Dagger 14.1 13.6 97 22 14 10.0 99.42     Clear
03:00 Legend Double Dagger 14.2 13.7 97 23 15 10.0 99.42     LegendNANA
04:00 Legend Double Dagger 13.7 13.2 97 21 10 10.0 99.39     LegendNANA
05:00 Legend Double Dagger 13.4 13.1 98 21 12 10.0 99.41     Mainly Clear
06:00 Legend Double Dagger 14.4 13.9 97 19 9 10.0 99.47     LegendNANA
07:00 Legend Double Dagger 16.9 14.8 87 19 16 10.0 99.47     LegendNANA
08:00 Legend Double Dagger 19.6 15.7 78 21 19 10.0 99.47     Mainly Clear
09:00 Legend Double Dagger 22.1 16.5 70 22 18 10.0 99.42 27   LegendNANA
10:00 Legend Double Dagger 24.0 16.4 62 24 21 10.0 99.36 29   LegendNANA
11:00 Legend Double Dagger 24.3 15.1 56 23 31 10.0 99.38 28   Mostly Cloudy
12:00 Legend Double Dagger 25.4 15.3 53 20 31 10.0 99.35 30   LegendNANA
13:00 Legend Double Dagger 26.3 16.7 55 22 22 10.0 99.28 31   LegendNANA
14:00 Legend Double Dagger 27.7 15.9 48 21 27 10.0 99.23 32   Mainly Clear
15:00 Legend Double Dagger 27.1 16.3 51 21 26 10.0 99.24 32   LegendNANA
16:00 Legend Double Dagger 26.6 14.9 48 20 34 10.0 99.17 31   LegendNANA
17:00 Legend Double Dagger 25.3 15.5 54 20 38 10.0 99.10 30   Mainly Clear
18:00 Legend Double Dagger 24.9 15.7 56 20 20 10.0 99.07 29   LegendNANA
19:00 Legend Double Dagger 24.1 16.0 60 21 35 10.0 99.14 29   LegendNANA
20:00 Legend Double Dagger 22.3 16.0 67 19 18 10.0 99.15 27   Mainly Clear
21:00 Legend Double Dagger 21.4 15.8 70 20 27 10.0 99.19 26   LegendNANA
22:00 Legend Double Dagger 20.2 15.9 76 21 22 10.0 99.24 25   LegendNANA
23:00 Legend Double Dagger 19.8 16.3 80 25 16 10.0 99.33     Mostly Cloudy

Notes on Data Quality.

Legend

  • E = Estimated
  • M = Missing
  • NA = Not Available
  • ‡ = Partner data that is not subject to review by the National Climate Archives
Date modified: